Regional Weather Roundup
Issued by NWS

Home | Current Version | Previous Version | Graphics & Text | Print | Product List | Glossary On
Versions: 1 2 3 4 5 6 7 8 9 10 11 12 13 14 15 16 17 18 19 20 21 22 23 24 25 26 27 28 29 30 31 32 33 34 35 36 37 38 39 40 41 42 43 44 45 46 47 48 49 50
000
ASUS43 KLMK 300902
RWRKY
KENTUCKY REGIONAL WEATHER ROUNDUP
NATIONAL WEATHER SERVICE LOUISVILLE KY
400 AM EST FRI JAN 30 2015

NOTE "FAIR" INDICATES FEW OR NO CLOUDS BELOW 12,000 FEET
WITH NO SIGNIFICANT WEATHER AND/OR OBSTRUCTIONS TO VISIBILITY.

KYZ001>023-026-027-061>063-070>075-301000-
WESTERN AND SOUTH CENTRAL KENTUCKY

CITY           SKY/WX    TMP DP  RH WIND       PRES   REMARKS
PADUCAH        CLOUDY    36  25  64 N12       30.44R WCI  28
HENDERSON      CLOUDY    36  23  60 NW15G21   30.41R WCI  26
OWENSBORO      CLOUDY    35  27  73 N13G23    30.39R WCI  26
HOPKINSVILLE   CLOUDY    35  28  74 NW6       30.39R WCI  30
BOWLING GREEN  CLOUDY    36  28  73 NW6       30.36S WCI  31
GLASGOW        NOT AVBL
$$

KYZ024-025-028>034-038-045-046-053-301000-
NORTH CENTRAL KENTUCKY

CITY           SKY/WX    TMP DP  RH WIND       PRES   REMARKS
LOUISVILLE/SDF CLOUDY    37  26  64 NW8       30.31R WCI  31
LOUISVILLE/LOU CLOUDY    36  26  67 NW10      30.31R WCI  28
FORT KNOX      CLOUDY    35  26  71 NW9       30.30S WCI  28
$$

KYZ035>037-039>044-047>052-055>060-089>105-301000-
NORTHEAST KENTUCKY

CITY           SKY/WX    TMP DP  RH WIND       PRES   REMARKS
LEXINGTON      CLOUDY    32  28  85 W10       30.26R WCI  24
COVINGTON      CLOUDY    33  26  75 NW13      30.23S WCI  24
FRANKFORT      CLOUDY    34  26  72 VRB6      30.26S WCI  29
$$

KYZ054-064>069-076>088-106>120-301000-
SOUTHEAST KENTUCKY

CITY           SKY/WX    TMP DP  RH WIND       PRES   REMARKS
JACKSON        CLOUDY    32  24  72 W8G17     30.21R WCI  25
LONDON         CLOUDY    34  24  67 NW12      30.25R WCI  25
SOMERSET       NOT AVBL
MIDDLESBORO    NOT AVBL
MONTICELLO     CLOUDY    35  28  76 NW7       30.32R WCI  29
$$




USA.gov is the U.S. government's official web portal to all federal, state and local government web resources and services.